EW8682 Weather Reports


Display with metric or nautical units.
time (UTC)temp
F
wind
direction
speed
MPH
gust
MPH
rain 1hr
in
rain 24hr
in
rain mn
in
humidity
%
barometer
mb
20260509071504 56 140 0.0 2.0 0.00 0.00 0.00 88 1005.9
20260509070100 57 140 1.0 2.0 0.00 0.00 0.00 87 1006.1
20260509064606 57 140 1.0 3.0 0.00 0.00 0.00 86 1006.2
20260509063100 57 141 1.0 3.0 0.00 0.00 0.00 86 1006.2
20260509061603 58 143 1.0 2.0 0.00 0.00 0.00 86 1006.2
20260509054610 59 143 0.0 1.0 0.00 0.00 0.00 84 1006.3
20260509053103 59 143 0.0 1.0 0.00 0.00 0.00 84 1006.2
20260509051604 60 143 1.0 2.0 0.00 0.00 0.00 83 1006.3
20260509050057 60 144 1.0 3.0 0.00 0.00 0.00 83 1006.2
20260509044555 61 148 1.0 2.0 0.00 0.00 0.00 82 1006.1
20260509043101 61 150 2.0 3.0 0.00 0.00 0.00 81 1006.1
20260509041555 61 190 1.0 3.0 0.00 0.00 0.00 81 1005.9
20260509040054 62 190 0.0 2.0 0.00 0.00 0.00 78 1005.8
20260509034554 64 190 0.0 1.0 0.00 0.00 0.00 76 1005.7
20260509033053 65 190 0.0 1.0 0.00 0.00 0.00 75 1005.5
20260509031616 65 190 0.0 2.0 0.00 0.00 0.00 74 1005.4
20260509030051 66 190 0.0 3.0 0.00 0.00 0.00 72 1005.3
20260509024552 67 190 1.0 3.0 0.00 0.00 0.00 70 1005.1
20260509023057 69 191 1.0 4.0 0.00 0.00 0.00 67 1005.0
20260509021551 71 197 1.0 4.0 0.00 0.00 0.00 64 1004.8
20260509020050 73 202 1.0 4.0 0.00 0.00 0.00 61 1004.7
20260509014550 74 207 1.0 5.0 0.00 0.00 0.00 59 1004.7
20260509013049 74 202 2.0 6.0 0.00 0.00 0.00 59 1004.6
20260509011549 74 191 3.0 6.0 0.00 0.00 0.00 59 1004.5
20260509010046 75 183 2.0 6.0 0.00 0.00 0.00 57 1004.4
20260509004551 77 173 2.0 6.0 0.00 0.00 0.00 55 1004.4
20260509003045 78 227 2.0 6.0 0.00 0.00 0.00 53 1004.3
20260509001543 79 196 2.0 10.0 0.00 0.00 0.00 51 1004.5
20260509000054 80 202 3.0 6.0 0.00 0.00 0.00 50 1004.5
20260508234542 80 189 3.0 7.0 0.00 0.00 0.00 50 1004.4
20260508233041 80 171 3.0 7.0 0.00 0.00 0.00 50 1004.4
20260508231539 80 172 2.0 7.0 0.00 0.00 0.00 50 1004.6
20260508230035 81 170 4.0 6.0 0.00 0.00 0.00 49 1004.9
20260508224533 80 256 2.0 8.0 0.00 0.00 0.00 48 1005.0
20260508223036 80 207 3.0 7.0 0.00 0.00 0.00 49 1005.1
20260508221534 80 194 3.0 7.0 0.00 0.00 0.00 48 1005.4
20260508220034 81 190 2.0 5.0 0.00 0.00 0.00 47 1005.7
20260508214524 80 171 2.0 6.0 0.00 0.00 0.00 48 1005.7
20260508213029 79 209 2.0 7.0 0.00 0.00 0.00 48 1005.9
20260508211518 79 187 3.0 7.0 0.00 0.00 0.00 49 1006.1
20260508210014 77 191 1.0 6.0 0.00 0.00 0.00 53 1006.2
20260508204512 77 184 2.0 7.0 0.00 0.00 0.00 52 1006.4
20260508203012 77 199 3.0 9.0 0.00 0.00 0.00 53 1006.6
20260508201507 76 181 3.0 8.0 0.00 0.00 0.00 55 1006.7
20260508200136 74 267 2.0 5.0 0.00 0.00 0.00 57 1006.7
20260508194502 74 172 2.0 5.0 0.00 0.00 0.00 58 1006.9
20260508193059 73 182 2.0 6.0 0.00 0.00 0.00 59 1007.1
20260508191557 72 189 2.0 8.0 0.00 0.00 0.00 60 1007.2
20260508184550 71 227 3.0 9.0 0.00 0.00 0.00 62 1007.4
20260508183046 69 191 3.0 7.0 0.00 0.00 0.00 64 1007.5
20260508181606 69 243 3.0 6.0 0.00 0.00 0.00 64 1007.6
20260508180048 68 194 4.0 7.0 0.00 0.00 0.00 66 1007.7
20260508174535 67 189 2.0 5.0 0.00 0.00 0.00 67 1007.9
20260508173031 66 189 2.0 6.0 0.00 0.00 0.00 70 1007.9
20260508171528 64 186 2.0 6.0 0.00 0.00 0.00 73 1008.0
20260508170025 64 190 2.0 4.0 0.00 0.00 0.00 74 1007.9
20260508164533 62 175 1.0 4.0 0.00 0.00 0.00 79 1007.9
20260508163016 61 185 1.0 5.0 0.00 0.00 0.00 82 1007.7
20260508161512 59 199 1.0 4.0 0.00 0.00 0.00 86 1007.8
20260508160020 58 187 0.0 3.0 0.00 0.00 0.00 88 1007.9
20260508154506 57 197 1.0 3.0 0.00 0.00 0.00 89 1007.9
20260508153003 56 200 0.0 2.0 0.00 0.00 0.00 90 1008.0
20260508151501 56 200 0.0 2.0 0.00 0.00 0.00 90 1008.0
20260508150100 55 200 0.0 2.0 0.00 0.00 0.00 91 1008.2
20260508144601 55 277 1.0 2.0 0.00 0.00 0.00 92 1008.2
20260508143058 55 304 0.0 1.0 0.00 0.00 0.00 92 1008.3
20260508141600 54 305 0.0 2.0 0.00 0.00 0.00 92 1008.2
20260508140056 54 304 0.0 0.0 0.00 0.00 0.00 93 1008.1
20260508134546 53 304 0.0 1.0 0.00 0.00 0.00 93 1007.9
20260508133049 53 304 0.0 1.0 0.00 0.00 0.00 93 1007.8
20260508131542 52 305 0.0 2.0 0.00 0.00 0.00 92 1007.8
20260508130043 52 304 0.0 1.0 0.00 0.00 0.00 92 1007.7
20260508124541 52 305 0.0 3.0 0.00 0.00 0.00 92 1007.3
20260508123040 51 304 0.0 2.0 0.00 0.00 0.00 92 1007.4
20260508121540 51 304 1.0 2.0 0.00 0.00 0.00 91 1007.3
20260508120044 50 304 1.0 2.0 0.00 0.00 0.00 91 1007.2
20260508114536 51 304 0.0 2.0 0.00 0.00 0.00 91 1007.1
20260508113035 51 304 1.0 3.0 0.00 0.00 0.00 91 1007.1
20260508111550 51 296 0.0 2.0 0.00 0.00 0.00 91 1007.1
20260508110034 51 296 0.0 3.0 0.00 0.00 0.00 90 1007.0
20260508104531 51 295 0.0 2.0 0.00 0.00 0.00 91 1007.0
20260508103034 51 294 0.0 2.0 0.00 0.00 0.00 90 1006.9
20260508101538 52 294 0.0 3.0 0.00 0.00 0.00 90 1007.0
20260508100029 52 293 0.0 2.0 0.00 0.00 0.00 90 1006.9
20260508094525 52 292 1.0 3.0 0.00 0.00 0.00 89 1007.1
20260508093022 53 237 1.0 3.0 0.00 0.00 0.00 89 1007.1
20260508091521 53 227 2.0 3.0 0.00 0.00 0.00 89 1007.1
20260508090019 53 224 0.0 2.0 0.00 0.00 0.00 89 1007.2
20260508084517 53 223 0.0 3.0 0.00 0.00 0.00 89 1007.4
20260508083013 54 220 1.0 2.0 0.00 0.00 0.00 88 1007.5
20260508081512 54 220 0.0 1.0 0.00 0.00 0.00 88 1007.6
20260508080013 54 220 1.0 2.0 0.00 0.00 0.00 87 1007.8
20260508074508 54 213 1.0 3.0 0.00 0.00 0.00 87 1007.7
20260508073007 55 214 1.0 2.0 0.00 0.00 0.00 87 1007.8